sat.trackr.live / text

‹ back to catalog

IRIDIUM 165

NORAD 43572 · 2018-061D

PAYLOAD ACTIVE UNKNOWN

§ Identity

Operator
Country
US
Launch date
2018-07-25
Launch site
AFWTR
Launch vehicle
Mass (kg)
RCS (m²)

Purposes: comms

External: N2YO · Heavens-Above · Gunter

§ Orbital elements

Epoch: 2026-09-20T02:29:54.479328Z

Period
100.40 min
Inclination
86.4009°
Eccentricity
0.0002082
Mean motion
14.34217729 rev/d
Perigee alt
776.2 km
Apogee alt
779.2 km
Semi-major
7,155.8 km
B*
4.8164e-6
RAAN
17.1109°
Arg perigee
93.4427°
Mean anomaly
266.7007°
Rev number
42,699

§ Raw data

IRIDIUM 1651 43572U 18061D   26263.10410277  .00000033  00000+0  48164-5 0  99912 43572  86.4009  17.1109 0002082  93.4427 266.7007 14.34217729426998

JSON: /api/v1/satellites/43572 · /tle

For live sub-satellite position, see the globe view (requires WebGL).

§ Visibility from observer

Set your observer location to see the next 7 days of passes ≥ 10°. The values pass through the URL so the page stays shareable.

No JS? Fill the form by hand. The geolocation button needs JavaScript.